TimeMDT,TemperatureF,Dew PointF,Humidity,Sea Level PressureIn,VisibilityMPH,Wind Direction,Wind SpeedMPH,Gust SpeedMPH,PrecipitationIn,Events,Conditions,WindDirDegrees,DateUTC
12:54 AM,28.0,5.0,38,30.21,10.0,SE,3.5,-,N/A,,Clear,140,2012-10-07 06:54:00
1:54 AM,27.0,5.0,39,30.23,10.0,East,3.5,-,N/A,,Clear,90,2012-10-07 07:54:00
2:54 AM,26.1,5.0,41,30.22,10.0,Calm,Calm,-,N/A,,Clear,0,2012-10-07 08:54:00
3:54 AM,24.1,5.0,44,30.23,10.0,East,8.1,-,N/A,,Clear,90,2012-10-07 09:54:00
4:54 AM,23.0,8.1,53,30.23,10.0,East,4.6,-,N/A,,Clear,80,2012-10-07 10:54:00
5:54 AM,21.9,8.1,55,30.25,10.0,East,3.5,-,N/A,,Clear,100,2012-10-07 11:54:00
6:54 AM,21.9,7.0,53,30.27,10.0,SE,3.5,-,N/A,,Clear,140,2012-10-07 12:54:00
7:54 AM,21.0,10.0,63,30.28,10.0,Calm,Calm,-,N/A,,Clear,0,2012-10-07 13:54:00
8:54 AM,26.1,7.0,44,30.30,10.0,Calm,Calm,-,N/A,,Clear,0,2012-10-07 14:54:00
9:54 AM,30.9,7.0,37,30.28,10.0,South,3.5,-,N/A,,Clear,190,2012-10-07 15:54:00
10:54 AM,36.0,9.0,33,30.26,10.0,WSW,6.9,-,N/A,,Clear,240,2012-10-07 16:54:00
11:54 AM,42.1,8.1,25,30.20,10.0,WSW,6.9,-,N/A,,Clear,250,2012-10-07 17:54:00
12:54 PM,46.0,8.1,21,30.18,10.0,West,9.2,-,N/A,,Clear,270,2012-10-07 18:54:00
1:54 PM,48.0,5.0,17,30.14,10.0,West,11.5,23.0,N/A,,Clear,260,2012-10-07 19:54:00
2:54 PM,50.0,3.9,15,30.12,10.0,West,13.8,21.9,N/A,,Clear,270,2012-10-07 20:54:00
3:54 PM,51.1,3.0,14,30.11,10.0,West,9.2,19.6,N/A,,Clear,280,2012-10-07 21:54:00
4:54 PM,52.0,3.0,14,30.09,10.0,West,9.2,-,N/A,,Clear,270,2012-10-07 22:54:00
5:54 PM,52.0,1.9,13,30.09,10.0,WSW,10.4,-,N/A,,Clear,240,2012-10-07 23:54:00
6:54 PM,48.9,3.9,16,30.09,10.0,WSW,10.4,-,N/A,,Clear,240,2012-10-08 00:54:00
7:54 PM,44.1,3.9,19,30.14,10.0,SW,11.5,-,N/A,,Clear,230,2012-10-08 01:54:00
8:54 PM,45.0,5.0,19,30.12,10.0,West,13.8,-,N/A,,Clear,260,2012-10-08 02:54:00
9:54 PM,45.0,7.0,21,30.09,10.0,WSW,11.5,-,N/A,,Clear,250,2012-10-08 03:54:00
10:54 PM,41.0,7.0,25,30.08,10.0,SSW,11.5,-,N/A,,Clear,210,2012-10-08 04:54:00
11:54 PM,41.0,8.1,26,30.05,10.0,SW,15.0,-,N/A,,Clear,230,2012-10-08 05:54:00